Regional Weather Roundup
Issued by NWS

Home | Current Version | Previous Version | Text Only | Print | Product List | Glossary Off
Versions: 1 2 3 4 5 6 7 8 9 10 11 12 13 14 15 16 17 18 19 20 21 22 23 24 25 26 27 28 29 30 31 32 33 34 35 36 37 38 39 40 41 42 43 44 45 46 47 48 49 50

000
ASUS44 KMEG 141100
RWRTN
TENNESSEE HOURLY STATE WEATHER ROUNDUP
NATIONAL WEATHER SERVICE MEMPHIS TN
500 AM CST THU DEC 14 2017

TNZ002-004-019-021-049-052-054-088>092-141200-
WEST TENNESSEE

CITY           SKY/WX    TMP DP  RH WIND       PRES   REMARKS
MEMPHIS INTL   PTCLDY    41  29  62 N7        29.91R
NWS MEMPHIS      N/A     40 N/A N/A MISG        N/A
JACKSON        CLEAR     34  28  79 N9        29.92R WCI  27
DYERSBURG      CLEAR     37  29  72 NE6       29.94R WCI  32
$$

TNZ008-025-027-028-033-062-065-066-141200-
NORTH MIDDLE TENNESSEE

CITY           SKY/WX    TMP DP  RH WIND       PRES   REMARKS
NASHVILLE      PTCLDY    37  28  70 NW6       29.91R WCI  32
CLARKSVILLE    PTCLDY    35  26  69 N10       29.91R WCI  27
CROSSVILLE     CLEAR     34  24  67 NW6       29.83R WCI  29
$$

TNZ061-075-076-078-094-096-097-141200-
SOUTH MIDDLE TENNESSEE

CITY           SKY/WX    TMP DP  RH WIND       PRES   REMARKS
$$

TNZ017-018-042-046-047-141200-
NORTHEAST TENNESSEE

CITY           SKY/WX    TMP DP  RH WIND       PRES   REMARKS
TRI CITIES     PTCLDY    38  24  57 W8        29.79R WCI  32
$$

TNZ012-013-036-069-073-074-141200-
CENTRAL EAST TENNESSEE

CITY           SKY/WX    TMP DP  RH WIND       PRES   REMARKS
KNOXVILLE      CLEAR     35  27  72 SW9       29.83R WCI  28
OAK RIDGE      CLEAR     32  23  69 SW3       29.85R
$$

TNZ083-085-099-141200-
SOUTHEAST TENNESSEE

CITY           SKY/WX    TMP DP  RH WIND       PRES   REMARKS
CHATTANOOGA    CLEAR     31  26  82 CALM      29.86R
$$

SKY/WX REPORTED AS FAIR MEANS FEW OR NO CLOUDS BELOW
12 THOUSAND FEET.





USA.gov is the U.S. government's official web portal to all federal, state and local government web resources and services.